This demonstration page uses our WeatherBlox Daily Observations layout. Learn more.

Left ArrowRight Arrow

Hourly Observations for June 4, 2017

Temp ( °F °C ) Dew Point ( °F °C ) Humidity (%) Winds ( mph kmh ) Pressure ( in mb ) Visibility ( mi km ) Precip ( " mm )
12:52 am 00:52 Mostly Cloudy 71 21.7 67 19.4 87 87 ESE 5 7 29.93 1013 10 16 0.00 0.03
1:52 am 01:52 Clear 70 21.1 67 19.4 90 90 SE 3 6 29.91 1013 10 16 0.00 0.00
2:52 am 02:52 Cloudy 70 21.1 67 19.4 90 90 SE 6 9 29.89 1012 10 16 0.00 0.00
3:52 am 03:52 Mostly Cloudy 69 20.6 67 19.4 93 93 SE 6 9 29.89 1012 10 16 0.00 0.00
4:52 am 04:52 Cloudy with Light Rain 70 21.1 67 19.4 90 90 ESE 3 6 29.90 1013 10 16 0.00 0.03
5:52 am 05:52 Cloudy with Rain 69 20.6 68 20 96 96 ESE 5 7 29.89 1012 4 6 0.04 1.02
6:52 am 06:52 Cloudy 69 20.6 68 20 96 96 SSE 3 6 29.90 1013 10 16 0.01 0.25
7:52 am 07:52 Cloudy 71 21.7 68 20 90 90 SE 6 9 29.90 1013 10 16 0.00 0.00
8:52 am 08:52 Mostly Cloudy 72 22.2 68 20 87 87 ESE 6 9 29.90 1013 10 16 0.00 0.00
9:52 am 09:52 Sunny 75 23.9 69 20.6 82 82 S 5 7 29.90 1012 10 16 0.00 0.00
10:52 am 10:52 Sunny 78 25.6 68 20 71 71 VRB 5 7 29.88 1012 10 16 0.00 0.00
11:52 am 11:52 Mostly Sunny 80 26.7 67 19.4 64 64 VRB 3 6 29.86 1011 10 16 0.00 0.00
12:52 pm 12:52 Sunny 81 27.2 66 18.9 61 61 NE 8 13 29.84 1011 10 16 0.00 0.00
1:52 pm 13:52 Sunny 82 27.8 68 20 63 63 NNE 9 15 29.82 1010 10 16 0.00 0.00
2:52 pm 14:52 Sunny 82 27.8 69 20.6 65 65 NNE 8 13 29.80 1009 10 16 0.00 0.00
3:52 pm 15:52 Sunny 80 26.7 69 20.6 69 69 NNE 8 13 29.80 1009 10 16 0.00 0.00
4:06 pm 16:06 Sunny with Nearby Thunderstorms 80 26.7 69 20.6 69 69 N 8 13 29.77 1008 10 16 0.00 0.00
4:47 pm 16:47 Mostly Cloudy with Thunderstorms 72 22 66 19 83 83 SSE 17 28 29.80 1009 10 16 0.00 0.00
4:52 pm 16:52 Mostly Cloudy with Thunderstorms 71 21.7 67 19.4 87 87 SSE 16 26 29.82 1010 10 16 0.00 0.03
5:00 pm 17:00 Cloudy with Thunderstorms 70 21.1 68 20 93 93 S 22 35 29.83 1010 2 3 0.00 0.03
5:07 pm 17:07 Cloudy with Thunderstorms 69 20.6 68 20 96 96 S 14 22 29.83 1010 1 2 0.13 3.30
5:10 pm 17:10 Cloudy with Thunderstorms 69 20.6 68 20 96 96 S 15 24 29.83 1010 2 3 0.13 3.30
5:13 pm 17:13 Cloudy with Nearby Thunderstorms 69 20.6 68 20 96 96 S 15 24 29.80 1009 5 8 0.13 3.30
5:28 pm 17:28 Cloudy with Thunderstorms 69 20.6 68 20 96 96 SE 6 9 29.80 1009 7 11 0.14 3.56
5:42 pm 17:42 Cloudy with Rain 69 20.6 68 20 96 96 SW 5 7 29.80 1009 6 10 0.14 3.56
5:49 pm 17:49 Cloudy with Nearby Thunderstorms 70 21 68 20 94 94 WSW 6 9 29.77 1008 4 6 0.16 4.06
5:52 pm 17:52 Cloudy with Nearby Thunderstorms 69 20.6 68 20 96 96 WSW 6 9 29.79 1009 4 6 0.17 4.32
6:04 pm 18:04 Partly Cloudy with Light Rain 69 20.6 68 20 96 96 W 5 7 29.80 1009 6 10 0.01 0.25
6:52 pm 18:52 Partly Cloudy with Light Rain 69 20.6 68 20 96 96 N 9 15 29.79 1009 10 16 0.03 0.76
7:52 pm 19:52 Mostly Sunny 69 20.6 67 19.4 93 93 Calm 29.80 1009 10 16 0.00 0.03
8:52 pm 20:52 Partly Cloudy with Light Rain 70 21.1 68 20 93 93 Calm 29.81 1009 10 16 0.00 0.03
9:52 pm 21:52 Partly Cloudy with Light Rain 69 20.6 68 20 96 96 Calm 29.82 1010 10 16 0.00 0.03
10:52 pm 22:52 Cloudy 69 20.6 68 20 96 96 NNW 5 7 29.82 1010 9 14 0.00 0.03
11:52 pm 23:52 Mostly Clear 69 20.6 68 20 96 96 NE 3 6 29.80 1009 10 16 0.00 0.00

Powered by AerisWeather